This demonstration page uses our WeatherBlox Daily Observations layout. Learn more.

Left ArrowRight Arrow

39.01783, -85.05884

Hourly Observations for June 7, 2015

Temp ( °F °C ) Dew Point ( °F °C ) Humidity (%) Winds ( mph kmh ) Pressure ( in mb ) Visibility ( mi km ) Precip ( " mm )
12:52 am 00:52 Mostly Clear with Mist and Fog 64 17.8 60 15.6 87 87 SSE 5 7 30.00 1016 5 8 N/A
1:52 am 01:52 Mostly Clear with Mist and Fog 63 17.2 60 15.6 90 90 SSE 3 6 29.99 1016 4 6 N/A
2:52 am 02:52 Partly Cloudy with Mist and Fog 62 16.7 59 15 90 90 SSW 3 6 29.98 1015 3 5 N/A
3:52 am 03:52 Mostly Clear with Mist and Fog 62 16.7 60 15.6 93 93 N N/A 29.98 1015 3 5 N/A
4:52 am 04:52 Mostly Clear with Mist and Fog 61 16.1 59 15 93 93 N N/A 29.98 1015 3 5 N/A
5:52 am 05:52 Mostly Clear with Mist and Fog 61 16.1 59 15 93 93 N N/A 29.98 1015 2 3 N/A
6:10 am 06:10 Mostly Clear with Mist and Fog 61 16 57 14 88 88 N N/A 30.00 1016 2 3 N/A
6:52 am 06:52 Mostly Cloudy with Mist and Fog 59 15 58 14.4 96 96 N N/A 29.99 1016 5 8 N/A
7:52 am 07:52 Partly Cloudy with Mist and Fog 64 17.8 62 16.7 93 93 S 5 7 29.99 1016 5 8 N/A
8:52 am 08:52 Hazy 70 21.1 64 17.8 82 82 S 9 15 29.98 1015 6 10 N/A
9:52 am 09:52 Hazy 73 22.8 64 17.8 74 74 S 9 15 29.97 1015 6 10 N/A
10:52 am 10:52 Cloudy 78 25.6 63 17.2 60 60 SW 9 15 29.95 1014 9 14 N/A
11:52 am 11:52 Cloudy 80 26.7 65 18.3 60 60 SSW 8 13 29.96 1015 9 14 N/A
12:52 pm 12:52 Mostly Cloudy 82 27.8 66 18.9 58 58 SW 10 17 29.95 1014 8 13 N/A
1:52 pm 13:52 Mostly Cloudy 85 29.4 67 19.4 55 55 SSW 13 20 29.93 1014 10 16 N/A
2:52 pm 14:52 Mostly Cloudy 86 30 66 18.9 51 51 SW 13 20 29.91 1013 10 16 N/A
3:52 pm 15:52 Mostly Cloudy 86 30 67 19.4 53 53 SSW 12 19 29.89 1012 9 14 N/A
4:52 pm 16:52 Mostly Cloudy 87 30.6 66 18.9 50 50 SSW 13 20 29.87 1012 10 16 N/A
5:52 pm 17:52 Mostly Cloudy 87 30.6 67 19.4 51 51 SSW 9 15 29.87 1011 9 14 N/A
6:52 pm 18:52 Mostly Cloudy 86 30 65 18.3 49 49 SSW 14 22 29.83 1010 9 14 N/A
7:52 pm 19:52 Mostly Cloudy 84 28.9 64 17.8 51 51 SW 9 15 29.84 1011 10 16 N/A
8:52 pm 20:52 Mostly Cloudy 81 27.2 64 17.8 57 57 SSW 8 13 29.84 1011 10 16 N/A
9:52 pm 21:52 Mostly Cloudy 80 26.7 63 17.2 56 56 SSW 9 15 29.84 1011 10 16 N/A
10:52 pm 22:52 Cloudy 79 26.1 63 17.2 58 58 SSW 8 13 29.85 1011 10 16 N/A
11:52 pm 23:52 Mostly Cloudy 77 25 64 17.8 64 64 SSW 7 11 29.85 1011 10 16 N/A

Powered by AerisWeather